星链-5773 (STARLINK-5773 )

导读

STARLINK-5773是美国太空探索技术公司(SpaceX)于2023年6月22日发射的星链(Starlink)低轨通信卫星,属于星链全球卫星互联网星座的组成部分。它运行在近地轨道,旨在为全球偏远地区、海洋航运、航空等提供高速低延迟的互联网接入服务。作为星链大规模组网的一颗卫星,它助力提升星座覆盖密度与服务稳定性,但也同其他星链卫星一道,引发了太空拥堵、轨道安全及天文观测干扰等方面的争议。

基本信息
目录编号:
57074
目录名称:
STARLINK-5773
国际标识:
2023-088AC
轨道中心:
EARTH
卫星名称:
星链-5773
卫星全名:
星链-5773 (STARLINK-5773 )
卫星状态:
在轨 (已飞行1178 天)
发射日期:
2023-06-22 UTC
国别 :
美国 (US)
星等 :
--
该卫星已列入 空间交会检测服务 Space Conjunction Data Service (SCDS) ,当前飞行风险评估等级: 高风险
轨道信息
数据来源 国际轨道数据 AOE轨道数据
星历时间 2026-09-12T09:23:50+0800
14小时前
查看轨道信息
2026-09-09T22:00:00+0800
3天前
查看轨道信息
半长轴 6861.225km 6861.185km
偏心率 0.0001199 0.0000625
轨道倾角 43.003° 43.002°
近地点辐角 259.354° 254.355°
升交点赤经 141.677° 155.655°
平近点角 100.718° 159.728°
近地点 482.265km 482.619km
远地点 483.911km 483.477km
周期 94.268分钟 94.267分钟
每日圈数 15.275672 15.275806
详细信息
固有亮度:
5
最大亮度:
2.4
卫星平台:
Starlink v1.5
覆盖范围:
全球
运营商:
太空探索技术公司
运营商所在国:
美国
制造商(研发单位):
太空探索技术公司
制造商所在国:
美国
使用方式:
暂无
卫星简介
星链(Starlink)计划是由太空探索技术公司(SpaceX)提出的一个巨型低轨卫星互联网星座项目,计划在2019年至2024年间在太空搭建由约1.2万颗卫星组成的“星链”网络,其中1584颗将部署在地球上空550千米处的近地轨道,并从2020年开始工作。该卫星仍在工作。
2D轨道图
3D轨道图
轨道高度分析图
轨道倾角分析图
轨道综合分析图
查看轨道综合分析图
交会数据列表
事件ID 空间交会对象 最接近时刻(TCA) 交会距离 交会风险概率(CRP) 交会风险指数(CRI) 操作
CDM_260915-014005-707406-731721
2026-09-15T
01:40:32+0000
0.319 km
远距离
3.908128E-4 高风险 0.87
CDM_260914-160505-707406-783521
2026-09-14T
16:05:16+0000
0.719 km
远距离
6.1256E-5 中风险 0.71
CDM_260913-124505-707405-717523
OBJECT K (57175)
2026-09-13T
12:45:16+0000
0.785 km
远距离
5.926949E-5 中风险 0.7
CDM_260915-011705-707406-380421
2026-09-15T
01:17:20+0000
1.419 km
极远距离
3.924517E-6 低风险 0.47
CDM_260914-192304-380405-707421
SUOMI100 (43804)
2026-09-14T
19:23:07+0000
1.869 km
极远距离
3.349037E-6 低风险 0.45
CDM_260915-000605-707406-731721
2026-09-15T
00:06:22+0000
2.104 km
极远距离
1.980926E-6 低风险 0.41
CDM_260914-072705-707406-783521
2026-09-14T
07:27:22+0000
2.379 km
极远距离
1.53532E-6 低风险 0.39
CDM_260913-202601-957305-707422
2026-09-13T
20:26:00+0000
2.848 km
极远距离
1.346981E-6 低风险 0.38
CDM_260914-234305-707406-380421
2026-09-14T
23:43:11+0000
2.119 km
极远距离
1.300247E-6 低风险 0.37
CDM_260915-025105-707406-380421
2026-09-15T
02:51:29+0000
2.186 km
极远距离
1.215826E-6 低风险 0.37
与全量物体交会距离演化趋势
与全量物体交会风险概率演化趋势